This demonstration page uses our WeatherBlox Daily Observations layout. Learn more.

Left ArrowRight Arrow

38.89511, -77.03637

Hourly Observations for July 23, 2021

Temp ( °F °C ) Dew Point ( °F °C ) Humidity (%) Winds ( mph kmh ) Pressure ( in mb ) Visibility ( mi km ) Precip ( " mm )
12:52 am 00:52 Partly Cloudy 72 22.2 55 12.8 55 55 N N/A 30.16 1022 10 16 N/A
1:52 am 01:52 Mostly Cloudy 71 21.7 57 13.9 61 61 N N/A 30.16 1021 10 16 N/A
2:52 am 02:52 Mostly Cloudy 71 21.7 54 12.2 55 55 N N/A 30.14 1021 10 16 N/A
3:52 am 03:52 Cloudy 71 21.7 57 13.9 61 61 N N/A 30.14 1021 10 16 N/A
4:52 am 04:52 Cloudy 70 21.1 57 13.9 64 64 N 3 6 30.14 1021 10 16 N/A
5:52 am 05:52 Mostly Cloudy 68 20 56 13.3 65 65 N 7 11 30.15 1021 10 16 N/A
6:52 am 06:52 Mostly Cloudy 69 20.6 58 14.4 68 68 NNW 8 13 30.17 1022 10 16 N/A
7:52 am 07:52 Mostly Cloudy 70 21.1 58 14.4 66 66 NNW 7 11 30.19 1022 10 16 N/A
8:52 am 08:52 Mostly Cloudy 73 22.8 56 13.3 55 55 NE 5 7 30.19 1022 10 16 N/A
9:52 am 09:52 Mostly Cloudy 76 24.4 57 13.9 52 52 NE 7 11 30.19 1023 10 16 N/A
10:52 am 10:52 Mostly Cloudy 79 26.1 55 12.8 44 44 ENE 10 17 30.19 1022 10 16 N/A
11:52 am 11:52 Mostly Cloudy 81 27.2 54 12.2 39 39 N N/A 30.18 1022 10 16 N/A
12:52 pm 12:52 Partly Cloudy 83 28.3 53 11.7 36 36 N N/A 30.16 1021 10 16 N/A
1:52 pm 13:52 Partly Cloudy 85 29.4 52 11.1 32 32 N N/A 30.15 1021 10 16 N/A
2:52 pm 14:52 Partly Cloudy 86 30 51 10.6 30 30 N 7 11 30.14 1021 10 16 N/A
3:52 pm 15:52 Mostly Sunny 86 30 52 11.1 31 31 undefined N/A 30.13 1020 10 16 N/A
4:52 pm 16:52 Mostly Sunny 85 29.4 53 11.7 33 33 N 9 15 30.11 1020 10 16 N/A
5:52 pm 17:52 Partly Cloudy 85 29.4 52 11.1 32 32 N 7 11 30.11 1020 10 16 N/A
6:52 pm 18:52 Partly Cloudy 83 28.3 54 12.2 37 37 N 10 17 30.10 1019 10 16 N/A
7:52 pm 19:52 Mostly Cloudy 80 26.7 53 11.7 39 39 SE 8 13 30.11 1020 10 16 N/A
8:52 pm 20:52 Partly Cloudy 78 25.6 53 11.7 42 42 SSE 7 11 30.11 1020 10 16 N/A
9:52 pm 21:52 Partly Cloudy 76 24.4 53 11.7 45 45 SSE 5 7 30.12 1020 10 16 N/A
10:52 pm 22:52 Mostly Cloudy 75 23.9 53 11.7 46 46 SE 5 7 30.13 1020 10 16 N/A
11:52 pm 23:52 Partly Cloudy 75 23.9 53 11.7 46 46 SW 3 6 30.14 1021 10 16 N/A

Powered by AerisWeather